Tracking 31030 objects as of 17-Jul-2025
HD Live streaming from Space Station
objects crossing your sky now

DELTA 1 DEB

Track DELTA 1 DEB now!
10-day predictions


NORAD ID: 24911
Int'l Code: 1981-070M
Perigee: 532.5 km
Apogee: 23,197.2 km
Inclination: 90.6 °
Period: 408.5 minutes
Semi major axis: 18235 km
RCS: 0.038 m2 (small)
Launch date: August 3, 1981
Source: United States (US)
Launch site: AIR FORCE WESTERN TEST RANGE (AFWTR)

Note: This is SATELLITE DEBRIS
Your satellite tracking list
Your tracking list is empty




NASA's NSSDC Master Catalog

Two Line Element Set (TLE):
1 24911U 81070M   25174.88762703 -.00000004  00000-0 -32739-3 0  9996
2 24911  90.6486  40.7741 6214336 327.2974  11.0980  3.52544560358283
Source of the keplerian elements: AFSPC